Probability
71 74 71 71 68 71 65 71 77 74 74 71 71 68 68 68 68 65 61 61 65 65 61 61 65 68 61 65 55 58 48 52 42 45 42 39 42 45 29 42 35 26 13
68 71 71 68 71 68 71 71 71 77 71 74 71 68 65 65 68 65 65 61 61 58 61 58 58 61 61 61 58 55 52 48 48 45 42 42 45 45 45 45 32 23 23
61 61 65 65 68 68 71 71 74 74 71 74 65 65 65 55 65 61 58 58 61 61 61 58 58 58 55 45 48 48 52 42 48 42 48 42 45 42 45 42 29 26 13
52 55 61 65 65 71 68 74 71 65 68 65 65 65 58 61 58 52 52 55 48 45 52 55 55 52 52 48 42 52 45 45 45 42 42 39 45 35 32 39 29 23 16
48 52 52 68 71 71 77 71 68 68 55 58 55 55 55 52 42 42 42 35 45 45 52 45 52 52 42 32 32 35 42 45 45 45 45 35 32 29 32 32 23 16 23
55 52 58 61 65 71 65 58 61 65 61 58 58 52 39 26 16 13 29 32 35 39 45 52 48 45 35 13 10 13 19 29 39 42 45 32 29 32 32 26 26 16 19
55 55 58 55 61 55 45 45 58 55 55 61 55 58 48 32 16 10 6 19 29 35 52 52 26 26 26 45 23 3 6 3 6 23 48 42 32 35 32 32 26 16 13
58 55 52 55 52 55 58 55 55 55 55 55 52 55 52 29 16 13 10 10 19 39 48 48 48 48 23 32 35 29 39 32 23 16 29 35 29 35 32 32 26 26 19
48 52 45 42 48 55 58 58 61 55 52 48 45 48 45 35 19 10 3 19 19 23 29 26 32 32 23 16 23 32 35 35 16 10 13 16 16 16 23 29 19 13 13
42 45 48 48 48 52 55 55 52 52 45 42 39 39 35 29 19 6 0 13 19 19 29 23 16 19 16 3 23 29 29 23 16 16 10 13 16 19 3 13 26 16 10
48 45 45 45 42 48 48 45 42 39 39 39 42 42 32 23 10 3 0 10 13 16 23 23 16 10 0 0 3 16 19 16 13 19 16 26 26 26 26 23 23 16 6
39 42 42 48 35 23 35 35 35 39 39 35 35 32 26 10 6 3 0 0 3 16 16 16 16 3 0 0 0 6 0 0 6 16 10 16 26 26 26 23 16 16 10
42 45 45 42 35 42 39 35 32 39 29 23 23 23 19 10 10 3 0 0 0 0 6 3 0 0 0 0 0 0 0 0 3 6 10 13 13 23 23 16 19 23 23
42 45 45 42 32 29 35 23 19 23 26 19 23 16 10 10 10 3 3 0 0 0 0 0 0 0 0 0 0 0 0 0 3 6 6 6 10 6 16 13 16 19 16
39 39 32 26 19 29 23 13 19 23 23 16 13 10 6 6 3 0 0 0 0 0 3 6 3 3 3 6 3 0 0 0 0 3 3 6 10 6 10 13 13 16 13
35 32 19 19 23 13 19 13 0 0 0 0 0 0 0 0 0 0 0 0 0 0 0 0 3 3 3 3 3 0 0 0 3 3 3 6 6 3 6 10 10 13 13
32 19 13 13 10 19 16 16 6 0 0 0 0 0 0 0 0 0 0 0 0 0 0 0 0 0 3 0 0 3 3 0 6 6 10 13 10 6 6 10 10 10 6
19 10 6 10 10 10 10 10 13 10 3 0 0 0 0 0 0 0 0 0 0 0 0 0 0 0 0 0 0 0 0 3 3 3 3 10 10 3 3 10 10 10 6
6 10 13 13 10 6 10 6 6 3 0 3 6 0 0 0 0 0 0 0 0 0 0 0 0 0 0 3 3 10 10 10 10 10 10 6 10 6 6 6 3 6 3
10 0 0 0 0 3 3 3 6 6 3 10 0 3 0 0 0 0 0 0 0 0 0 0 0 0 0 3 3 6 6 10 10 10 10 6 10 0 0 6 6 3 3
3 0 0 0 0 0 0 0 3 3 3 3 0 0 0 0 0 0 0 0 0 0 0 0 0 0 3 3 3 3 6 6 6 6 6 0 3 0 0 3 3 3 0
6 0 0 0 0 0 0 3 3 0 0 0 0 0 0 0 0 0 0 0 0 0 0 3 3 0 3 3 3 3 0 6 6 6 3 3 0 0 3 3 3 0 0
0 0 0 0 0 0 0 3 0 0 0 0 0 0 0 0 0 0 0 0 0 0 3 3 3 3 0 3 3 3 0 6 6 6 3 3 3 0 3 3 0 0 0
0 0 0 0 0 0 0 0 0 0 0 0 0 0 0 0 0 0 0 0 0 0 0 3 3 3 3 3 3 3 0 3 6 3 3 3 3 3 3 3 3 0 0
0 0 0 0 0 0 0 0 0 0 0 3 0 0 0 0 0 0 0 0 0 0 0 0 0 0 0 0 0 0 0 0 0 3 3 3 3 0 3 0 0 0 0
0 0 0 0 0 0 0 0 0 0 3 0 0 0 0 0 0 0 0 0 0 0 0 0 0 0 0 0 0 0 0 0 0 0 0 3 3 3 3 3 0 0 0
Height
5896 5895 5894 5893 5892 5891 5890 5889 5888 5887 5886 5885 5883 5882 5881 5880 5879 5878 5876 5875 5873 5872 5870 5869 5868 5866 5865 5863 5862 5860 5858 5857 5855 5855 5854 5853 5852 5851 5850 5849 5849 5848 5847
5892 5891 5890 5889 5888 5887 5886 5885 5884 5882 5881 5880 5878 5877 5875 5874 5873 5871 5870 5868 5867 5865 5864 5863 5861 5860 5858 5857 5855 5853 5852 5850 5849 5848 5847 5847 5846 5844 5842 5842 5842 5841 5840
5887 5886 5886 5885 5883 5882 5881 5880 5879 5877 5876 5874 5872 5871 5869 5868 5866 5865 5863 5862 5860 5859 5857 5856 5854 5853 5851 5850 5849 5847 5845 5844 5843 5841 5840 5839 5838 5837 5836 5835 5834 5834 5833
5882 5881 5881 5880 5878 5877 5876 5875 5873 5871 5870 5868 5866 5864 5862 5861 5859 5857 5856 5855 5853 5852 5850 5849 5847 5845 5844 5843 5841 5840 5839 5837 5836 5834 5833 5832 5831 5830 5829 5828 5827 5826 5825
5877 5876 5875 5873 5872 5871 5870 5868 5867 5865 5863 5861 5859 5857 5855 5853 5851 5850 5849 5847 5846 5844 5842 5841 5839 5838 5837 5835 5834 5832 5831 5830 5828 5827 5826 5825 5824 5823 5821 5820 5819 5818 5817
5870 5869 5868 5867 5866 5864 5863 5862 5860 5858 5856 5854 5852 5850 5848 5846 5844 5842 5841 5839 5837 5836 5834 5832 5831 5830 5828 5827 5825 5824 5823 5821 5820 5819 5818 5817 5816 5815 5813 5811 5810 5809 5809
5864 5863 5861 5860 5858 5857 5856 5854 5853 5851 5849 5846 5844 5842 5840 5838 5836 5834 5832 5830 5828 5827 5825 5823 5822 5820 5819 5818 5816 5815 5814 5812 5811 5810 5809 5809 5808 5807 5805 5803 5801 5800 5800
5857 5856 5854 5853 5851 5849 5848 5846 5844 5842 5840 5838 5836 5834 5832 5829 5827 5825 5823 5821 5819 5818 5816 5814 5813 5811 5809 5808 5807 5806 5805 5804 5802 5801 5800 5799 5798 5797 5795 5794 5793 5792 5791
5849 5848 5846 5844 5843 5841 5839 5837 5835 5833 5831 5829 5827 5824 5822 5820 5818 5816 5813 5811 5809 5808 5806 5804 5803 5801 5800 5798 5797 5796 5795 5794 5793 5792 5791 5790 5788 5787 5786 5784 5783 5782 5781
5840 5839 5837 5835 5833 5831 5829 5828 5826 5824 5822 5819 5817 5815 5812 5810 5808 5805 5803 5801 5799 5797 5795 5794 5792 5791 5789 5787 5786 5785 5785 5784 5783 5782 5781 5780 5779 5777 5776 5775 5773 5772 5771
5831 5829 5828 5825 5823 5821 5819 5817 5815 5813 5811 5809 5807 5805 5802 5800 5798 5795 5792 5790 5788 5786 5784 5783 5781 5779 5778 5776 5775 5774 5773 5773 5772 5771 5771 5769 5768 5767 5766 5765 5763 5762 5761
5822 5820 5818 5816 5814 5811 5810 5807 5803 5802 5800 5798 5796 5794 5792 5790 5788 5785 5783 5780 5777 5775 5773 5771 5770 5768 5766 5765 5764 5762 5762 5761 5761 5760 5760 5759 5758 5757 5755 5754 5753 5752 5751
5811 5810 5808 5806 5804 5802 5799 5797 5793 5791 5789 5787 5785 5783 5781 5779 5777 5774 5772 5769 5767 5764 5762 5760 5758 5756 5755 5754 5752 5751 5750 5749 5749 5748 5748 5747 5747 5746 5744 5744 5743 5742 5741
5801 5799 5797 5795 5793 5791 5788 5786 5783 5781 5779 5777 5774 5772 5770 5768 5765 5763 5761 5758 5756 5753 5751 5749 5747 5745 5743 5742 5741 5739 5738 5737 5737 5736 5736 5736 5735 5734 5733 5732 5732 5731 5730
5790 5788 5786 5784 5782 5780 5777 5775 5773 5771 5768 5766 5764 5761 5759 5757 5754 5752 5749 5747 5744 5742 5740 5738 5736 5734 5732 5730 5729 5728 5726 5726 5725 5724 5724 5723 5723 5723 5722 5722 5721 5721 5720
5780 5778 5776 5773 5771 5769 5767 5764 5762 5760 5757 5755 5753 5751 5748 5746 5743 5741 5738 5736 5733 5731 5729 5727 5725 5723 5721 5719 5718 5717 5715 5714 5714 5713 5712 5711 5711 5711 5711 5710 5710 5710 5710
5769 5767 5765 5763 5760 5758 5756 5754 5751 5749 5746 5744 5742 5739 5737 5735 5732 5730 5727 5725 5722 5720 5718 5716 5714 5712 5710 5708 5707 5705 5704 5703 5702 5702 5701 5700 5699 5699 5699 5699 5699 5699 5699
5758 5756 5754 5752 5750 5747 5745 5743 5740 5738 5736 5733 5731 5729 5726 5724 5721 5719 5716 5714 5712 5709 5707 5705 5704 5702 5700 5698 5696 5695 5693 5692 5691 5691 5690 5689 5689 5688 5688 5688 5688 5688 5688
5747 5745 5743 5741 5739 5737 5734 5732 5729 5727 5725 5722 5720 5718 5715 5713 5710 5708 5706 5704 5701 5699 5697 5695 5694 5692 5690 5688 5686 5684 5683 5681 5681 5680 5679 5679 5678 5677 5677 5677 5677 5677 5678
5737 5735 5733 5731 5728 5726 5724 5721 5719 5716 5714 5711 5709 5707 5704 5701 5699 5697 5695 5693 5691 5689 5687 5685 5683 5681 5679 5677 5676 5674 5673 5671 5670 5669 5668 5668 5667 5667 5667 5666 5667 5667 5667
5726 5724 5722 5720 5718 5716 5713 5711 5708 5706 5703 5701 5698 5696 5693 5690 5688 5686 5684 5682 5680 5678 5676 5674 5673 5671 5669 5667 5665 5664 5663 5661 5660 5659 5658 5657 5656 5656 5656 5656 5656 5656 5657
5716 5714 5712 5710 5708 5705 5703 5701 5698 5696 5693 5690 5688 5685 5683 5680 5678 5676 5674 5672 5670 5668 5666 5664 5662 5661 5659 5658 5656 5654 5653 5652 5650 5649 5648 5646 5645 5645 5645 5645 5645 5645 5646
5706 5704 5702 5700 5698 5695 5693 5690 5688 5685 5683 5680 5678 5675 5673 5670 5668 5666 5664 5662 5660 5658 5656 5654 5653 5651 5649 5648 5646 5644 5643 5642 5640 5639 5637 5636 5635 5635 5634 5634 5634 5634 5634
5696 5694 5692 5689 5687 5685 5683 5680 5678 5675 5673 5670 5668 5665 5663 5660 5658 5655 5654 5652 5650 5648 5647 5645 5643 5641 5640 5638 5637 5635 5633 5632 5630 5629 5627 5626 5625 5624 5624 5623 5623 5623 5623
5686 5684 5682 5679 5677 5675 5673 5670 5668 5666 5663 5660 5658 5656 5653 5651 5648 5646 5644 5642 5640 5639 5637 5636 5634 5632 5630 5629 5627 5625 5624 5622 5621 5619 5618 5616 5615 5614 5613 5613 5612 5612 5612
5677 5674 5672 5670 5668 5665 5663 5661 5658 5656 5654 5651 5649 5646 5644 5642 5639 5637 5635 5633 5631 5630 5628 5626 5624 5623 5621 5619 5618 5616 5614 5612 5611 5609 5608 5607 5605 5605 5603 5603 5603 5602 5602
Wind_Speed
17 17 18 18 19 20 20 19 20 20 20 20 20 20 21 21 22 23 23 24 24 24 25 25 24 24 24 24 25 25 25 25 24 24 23 24 24 23 24 23 23 22 23
18 19 19 19 21 21 21 21 21 21 21 22 22 23 24 24 24 25 26 26 25 25 26 26 25 26 25 26 26 26 26 26 25 25 25 25 26 26 25 24 24 24 23
20 20 21 21 22 22 22 22 23 23 24 25 25 26 26 26 26 27 27 27 27 27 27 27 28 27 26 26 27 27 27 27 27 27 26 26 26 26 25 26 26 26 25
22 23 23 23 23 23 24 25 25 25 25 26 27 28 29 29 29 28 28 28 28 28 29 29 28 28 27 27 27 28 28 28 28 28 28 27 27 27 27 27 27 27 26
25 25 24 24 24 25 25 26 26 27 28 29 29 30 30 30 30 30 30 30 30 30 30 30 30 30 30 30 29 28 28 28 28 29 28 28 28 28 27 27 28 28 28
27 27 27 27 27 27 28 28 28 29 30 31 31 30 30 30 31 31 31 31 31 32 33 33 33 33 32 32 31 31 30 30 30 30 30 29 28 29 29 29 29 29 29
30 29 29 29 29 30 31 31 32 32 32 33 32 31 31 31 32 32 33 33 32 33 33 33 34 34 34 34 33 33 32 32 32 32 32 31 30 31 32 32 31 31 30
32 33 32 32 32 33 33 34 34 34 35 35 34 34 33 33 33 34 34 34 34 34 34 34 35 35 35 35 35 34 34 34 34 34 33 33 34 34 34 33 32 32 32
34 35 35 34 34 35 35 35 35 36 36 36 35 35 36 35 35 35 35 35 35 35 36 36 37 37 36 36 36 36 35 35 35 35 35 34 34 35 35 35 34 34 34
35 36 37 37 37 37 37 37 37 37 38 37 37 37 37 37 37 36 36 37 37 37 37 37 37 37 37 37 38 38 38 37 37 36 35 35 35 34 35 35 36 36 35
37 37 38 38 38 38 38 39 39 38 38 38 37 38 38 38 37 37 37 37 38 38 37 37 37 38 38 38 38 39 39 38 37 37 37 36 36 35 35 35 36 36 36
38 38 38 39 39 39 40 40 40 40 39 38 38 38 38 39 39 39 39 39 39 39 38 38 38 39 39 38 38 38 38 38 38 38 37 37 36 36 36 35 35 35 35
39 39 39 40 40 41 42 42 40 40 39 39 39 38 39 39 40 40 39 38 38 39 38 37 38 39 39 38 38 37 37 38 38 37 37 36 36 36 36 35 35 34 34
39 40 40 41 41 41 41 41 41 41 41 41 39 39 39 39 39 39 39 39 39 39 38 37 37 38 38 38 38 38 38 38 38 38 38 37 37 36 35 35 34 34 33
40 40 40 41 41 40 41 41 41 42 42 40 39 39 39 39 39 39 38 38 38 38 38 38 37 36 37 37 37 37 37 37 37 38 38 38 37 36 35 34 34 33 32
40 40 41 41 41 40 40 40 40 40 40 39 39 39 39 39 39 39 38 38 38 37 37 37 36 35 36 36 35 35 35 36 37 37 37 37 36 36 34 33 33 32 31
40 40 40 40 39 38 39 40 40 39 38 38 39 39 39 39 39 39 37 37 37 36 36 36 36 35 35 35 35 35 35 36 36 36 36 35 35 34 34 33 31 31 31
38 38 39 38 38 38 38 38 38 38 38 38 38 39 39 39 39 38 37 36 35 35 35 35 34 34 35 34 33 33 34 35 35 35 34 33 33 33 32 32 31 31 31
37 37 37 38 38 38 37 37 38 38 38 38 38 38 38 37 37 37 36 35 35 35 35 35 34 34 33 33 33 33 33 33 34 34 34 33 33 32 32 32 32 31 31
37 37 37 37 37 36 36 37 37 37 37 37 37 37 37 36 35 35 35 34 34 34 34 34 34 34 33 33 32 32 32 32 32 33 33 33 33 33 32 32 32 31 30
37 36 36 35 35 35 35 36 36 36 36 37 36 36 36 35 34 34 34 33 33 33 33 34 34 34 34 34 33 32 32 31 31 31 32 32 32 32 31 30 31 31 31
36 36 35 34 34 35 35 35 35 36 36 36 36 35 35 34 34 34 34 33 33 32 32 33 32 32 32 32 32 32 31 31 31 31 31 31 30 30 30 30 30 30 30
35 35 34 34 34 34 34 35 35 35 35 35 35 34 34 33 33 33 33 32 32 32 32 32 32 31 31 31 31 31 31 31 31 30 30 30 30 30 30 30 31 31 31
33 33 33 33 34 34 34 34 34 34 34 34 34 33 32 32 32 32 32 31 31 31 31 31 31 31 31 30 31 31 31 31 31 31 31 30 30 30 30 30 31 31 30
31 31 31 32 32 32 33 33 33 33 33 32 32 32 32 31 31 31 30 30 30 30 30 30 30 30 30 30 30 30 30 30 30 30 30 29 29 29 29 29 28 28 28
31 30 31 31 32 32 33 33 33 33 32 31 32 32 32 31 31 30 30 29 29 29 30 30 30 30 30 30 30 30 30 30 30 29 29 28 27 27 28 28 27 27 26
Wind_Direction
299 298 297 299 299 301 301 300 298 299 299 297 298 298 297 296 297 297 295 296 295 294 295 296 295 295 295 294 292 289 288 289 291 289 288 288 289 290 288 286 283 282 280
297 296 296 295 296 297 297 297 297 298 299 299 297 296 297 297 296 297 296 294 294 293 293 293 293 293 292 292 292 290 289 291 292 290 287 286 286 287 287 285 284 283 279
292 292 293 293 293 294 295 296 296 294 296 298 295 294 296 298 297 295 294 293 292 291 291 292 293 293 291 292 291 291 292 293 293 290 287 286 285 284 284 283 282 282 280
288 290 290 290 290 291 293 295 296 296 296 299 298 298 298 297 295 293 294 294 293 292 290 290 291 291 290 290 291 291 292 292 292 291 289 286 285 284 282 282 281 279 278
286 287 287 288 288 289 291 294 296 296 295 295 295 296 297 298 297 294 292 292 291 290 289 289 290 289 289 289 289 289 289 289 289 289 289 288 287 287 284 284 281 279 276
285 286 287 290 292 292 293 295 296 297 297 297 295 294 296 296 296 295 293 291 289 289 288 287 287 288 289 288 288 287 287 287 288 289 289 288 286 286 285 283 282 281 279
286 286 287 289 290 291 293 293 294 295 296 296 293 292 293 293 294 295 295 293 291 290 289 288 287 287 287 286 286 286 286 286 288 289 289 287 286 285 285 284 284 283 282
284 286 286 286 287 288 290 291 292 293 293 293 292 291 291 291 292 293 293 291 289 289 289 288 287 286 285 284 283 283 284 285 285 286 286 285 285 285 284 285 284 282 281
283 283 285 284 285 286 288 289 290 291 291 291 291 290 290 290 291 292 292 291 289 288 287 287 286 285 284 283 283 283 283 283 283 285 284 284 284 284 284 283 284 283 283
282 283 283 283 284 286 287 288 290 291 289 289 290 291 291 292 291 291 290 290 289 288 287 286 286 284 282 281 281 282 281 281 280 282 282 283 282 283 284 284 284 284 284
284 284 284 285 286 286 288 289 290 290 290 290 290 291 292 292 292 292 291 290 289 288 287 286 286 285 283 282 282 281 281 280 279 280 282 283 283 283 284 284 284 283 282
284 284 286 286 286 287 288 288 288 288 289 290 291 291 292 292 292 292 291 289 289 288 288 288 287 286 286 284 283 283 281 280 279 279 280 281 281 281 281 281 282 282 281
283 284 285 285 286 287 287 287 287 288 289 289 290 292 292 292 292 291 291 291 290 289 288 288 287 285 283 283 282 282 281 280 280 279 279 279 279 280 280 281 280 279 280
283 285 285 286 287 287 286 287 287 289 290 291 291 292 292 292 292 291 292 291 290 289 288 287 287 285 283 282 282 281 281 280 279 279 278 278 278 278 279 279 279 278 278
284 285 286 286 286 286 286 286 287 289 291 291 292 293 293 293 293 294 293 292 291 290 288 288 287 286 284 283 282 281 280 279 279 279 279 279 278 277 277 277 277 276 275
284 284 285 286 286 286 287 288 288 289 289 290 291 292 293 294 293 293 292 291 292 291 290 289 288 287 285 283 283 282 281 280 280 280 279 278 278 278 277 277 276 274 274
283 284 286 287 287 287 288 289 289 289 290 291 292 292 292 293 293 292 291 291 292 292 290 289 289 286 285 285 284 282 281 281 281 280 280 280 279 278 277 276 276 274 274
287 286 286 287 287 288 290 291 291 291 291 291 291 292 293 292 292 291 291 291 291 292 290 289 289 288 286 286 286 284 282 280 280 280 281 281 280 278 276 274 274 274 273
287 287 287 287 287 287 289 291 293 293 292 292 292 293 293 293 292 291 290 290 290 290 290 289 289 288 287 287 286 285 284 282 280 279 280 280 279 278 276 275 275 274 272
286 287 287 287 288 289 290 291 292 292 293 293 293 293 292 292 291 290 290 290 290 290 289 288 288 288 288 287 287 286 285 284 282 280 280 279 278 278 278 277 275 273 271
286 285 286 287 288 290 292 292 292 293 293 294 293 293 292 292 290 290 290 290 290 290 289 289 289 288 287 287 286 286 286 285 284 283 281 280 279 278 277 277 275 273 270
285 286 287 288 290 291 291 292 293 293 293 293 293 293 292 292 290 289 288 288 288 288 289 290 289 288 288 288 287 286 285 286 286 285 283 280 277 277 277 276 275 274 272
286 288 289 290 290 290 291 292 292 293 293 293 293 293 293 292 291 290 289 289 289 289 290 290 289 288 289 288 286 285 285 285 286 286 283 281 279 277 277 276 276 274 272
290 291 291 291 291 291 291 292 292 292 292 292 293 293 293 292 291 291 289 288 289 289 290 290 289 288 288 287 287 286 286 286 286 286 285 282 280 278 277 278 277 274 272
292 293 293 293 292 292 293 293 293 293 293 292 292 293 293 293 291 290 290 289 288 289 289 289 289 288 288 288 288 288 287 286 286 286 286 285 283 281 279 279 279 277 274
295 295 294 294 294 294 294 294 292 292 292 293 293 293 293 293 292 291 291 291 290 290 290 289 289 289 289 289 289 289 288 287 286 286 285 285 285 283 281 280 280 280 277